EVA6810 VHHH-RCTP

Flight info

Callsign EVA6810
Flight time N/A
Altitude 37000
Route DALOL V631 ENVAR M750 TONGA TONGA1A
Aircraft B77L/H-SDE1E2E3FGHIJ2J3J4J5M1RWXY/LB1D1

Departure

Time N/A
Airport Hong Kong International Airport (VHHH)

Arrival

Time 2026-04-30 10:50
Airport Taiwan Taoyuan International Airport (RCTP)
Time Latitude Longitude Altitude Speed Heading
2026-04-30 10:31 24.07575 120.19334 14059 ft 375 kts 29°
2026-04-30 10:31 24.09770 120.20860 13842 ft 373 kts 28°
2026-04-30 10:31 24.11959 120.22382 13598 ft 372 kts 28°
2026-04-30 10:32 24.14140 120.23898 13367 ft 370 kts 29°
2026-04-30 10:32 24.16306 120.25405 13146 ft 367 kts 29°
2026-04-30 10:32 24.18454 120.26901 12932 ft 365 kts 29°
2026-04-30 10:32 24.20593 120.28391 12709 ft 364 kts 28°
2026-04-30 10:33 24.22726 120.29876 12510 ft 363 kts 29°
2026-04-30 10:33 24.24850 120.31356 12300 ft 362 kts 29°
2026-04-30 10:33 24.26976 120.32838 12084 ft 361 kts 29°
2026-04-30 10:33 24.29096 120.34317 11879 ft 362 kts 28°
2026-04-30 10:34 24.31221 120.35799 11650 ft 362 kts 30°
2026-04-30 10:34 24.33345 120.37281 11426 ft 362 kts 30°
2026-04-30 10:34 24.35446 120.38749 11222 ft 362 kts 30°
2026-04-30 10:34 24.37566 120.40230 10999 ft 361 kts 30°
2026-04-30 10:35 24.39676 120.41705 10797 ft 356 kts 31°
2026-04-30 10:35 24.41750 120.43157 10582 ft 350 kts 31°
2026-04-30 10:35 24.43782 120.44581 10364 ft 341 kts 30°
2026-04-30 10:35 24.45747 120.45957 10147 ft 326 kts 30°
2026-04-30 10:36 24.47642 120.47285 9977 ft 319 kts 31°
2026-04-30 10:36 24.49470 120.48565 9778 ft 313 kts 31°
2026-04-30 10:36 24.51295 120.49843 9597 ft 309 kts 30°
2026-04-30 10:36 24.53127 120.51126 9417 ft 313 kts 30°
2026-04-30 10:37 24.54967 120.52416 9232 ft 314 kts 30°
2026-04-30 10:37 24.56794 120.53697 9055 ft 310 kts 30°
2026-04-30 10:37 24.58592 120.54959 8871 ft 302 kts 31°
2026-04-30 10:37 24.60352 120.56195 8669 ft 298 kts 30°
2026-04-30 10:38 24.62094 120.57418 8513 ft 297 kts 30°
2026-04-30 10:38 24.63852 120.58651 8354 ft 301 kts 31°
2026-04-30 10:38 24.65471 120.60096 8008 ft 304 kts 49°
2026-04-30 10:38 24.66737 120.61950 7802 ft 302 kts 55°
2026-04-30 10:39 24.67884 120.63878 7589 ft 299 kts 56°
2026-04-30 10:39 24.69008 120.65792 7393 ft 297 kts 56°
2026-04-30 10:39 24.70136 120.67680 7223 ft 294 kts 56°
2026-04-30 10:39 24.71270 120.69542 7034 ft 292 kts 55°
2026-04-30 10:40 24.72408 120.71387 6868 ft 291 kts 54°
2026-04-30 10:40 24.73543 120.73209 6701 ft 293 kts 54°
2026-04-30 10:40 24.74703 120.75059 6544 ft 293 kts 54°
2026-04-30 10:40 24.75861 120.76898 6351 ft 292 kts 54°
2026-04-30 10:41 24.77018 120.78735 6155 ft 291 kts 53°
2026-04-30 10:41 24.78170 120.80559 5986 ft 289 kts 54°
2026-04-30 10:41 24.79313 120.82368 5834 ft 286 kts 54°
2026-04-30 10:41 24.80448 120.84165 5628 ft 284 kts 53°
2026-04-30 10:42 24.81574 120.85947 5471 ft 283 kts 54°
2026-04-30 10:42 24.82693 120.87719 5309 ft 281 kts 54°
2026-04-30 10:42 24.83801 120.89476 5143 ft 279 kts 53°
2026-04-30 10:42 24.84904 120.91223 4963 ft 277 kts 53°
2026-04-30 10:43 24.86001 120.92962 4811 ft 274 kts 53°
2026-04-30 10:43 24.87086 120.94679 4645 ft 270 kts 54°
2026-04-30 10:43 24.88141 120.96350 4475 ft 261 kts 55°
2026-04-30 10:43 24.89146 120.97945 4305 ft 252 kts 56°
2026-04-30 10:44 24.90124 120.99496 4164 ft 241 kts 56°
2026-04-30 10:44 24.91058 121.00977 3997 ft 231 kts 55°
2026-04-30 10:44 24.92038 121.02334 3668 ft 218 kts 50°
2026-04-30 10:44 24.93005 121.03537 3393 ft 204 kts 51°
2026-04-30 10:45 24.93916 121.04678 3277 ft 190 kts 51°
2026-04-30 10:45 24.94810 121.05807 3216 ft 201 kts 51°
2026-04-30 10:45 24.95721 121.06958 3138 ft 197 kts 51°
2026-04-30 10:45 24.96595 121.08063 3063 ft 187 kts 51°
2026-04-30 10:46 24.97407 121.09089 3030 ft 177 kts 51°
2026-04-30 10:46 24.98215 121.10112 2833 ft 175 kts 51°
2026-04-30 10:46 24.98999 121.11105 2596 ft 169 kts 50°
2026-04-30 10:46 24.99741 121.12045 2376 ft 155 kts 50°
2026-04-30 10:47 25.00418 121.12900 2196 ft 142 kts 51°
2026-04-30 10:47 25.01061 121.13715 2017 ft 137 kts 51°
2026-04-30 10:47 25.01672 121.14488 1838 ft 131 kts 50°
2026-04-30 10:47 25.02265 121.15241 1669 ft 128 kts 49°
2026-04-30 10:48 25.02849 121.15981 1487 ft 129 kts 48°
2026-04-30 10:48 25.03453 121.16746 1326 ft 134 kts 47°
2026-04-30 10:48 25.04069 121.17524 1133 ft 137 kts 49°
2026-04-30 10:48 25.04709 121.18338 954 ft 140 kts 49°
2026-04-30 10:49 25.05339 121.19131 725 ft 139 kts 46°
2026-04-30 10:49 25.05994 121.19950 525 ft 143 kts 46°
2026-04-30 10:49 25.06630 121.20762 357 ft 139 kts 45°
2026-04-30 10:49 25.07277 121.21579 159 ft 145 kts 46°
2026-04-30 10:50 25.07913 121.22385 107 ft 128 kts 50°
2026-04-30 10:50 25.08373 121.22974 107 ft 75 kts 49°
2026-04-30 10:50 25.08601 121.23264 106 ft 36 kts 49°
2026-04-30 10:50 25.08685 121.23414 107 ft 16 kts 67°
2026-04-30 10:51 25.08714 121.23532 108 ft 16 kts 79°
2026-04-30 10:51 25.08734 121.23652 106 ft 16 kts 79°
2026-04-30 10:51 25.08759 121.23768 106 ft 15 kts 71°
2026-04-30 10:51 25.08806 121.23849 108 ft 8 kts 49°